Location: Arbon
(43.0005°N, 0.7472°E)
Time: 05:13:21
(UTC+00:00)

Vanguard 2 Rocket - Pass Details

Date: 20 June 2021
Orbit: 554 x 3325 km, 32.9° (Epoch: 26 July)

Event Time Altitude Azimuth Distance (km) Brightness Sun altitude
Rises 20:59:48 0° 257° (WSW) 7,306 11.9 -11.8°
Reaches altitude 10° 21:05:01 10° 254° (WSW) 6,200 11.5 -12.5°
Maximum altitude 21:23:16 57° 183° (S) 2,868 9.1 -14.5°
Drops below altitude 10° 21:34:52 10° 109° (ESE) 4,110 9.8 -15.8°
Enters shadow 21:35:04 - 109° (ESE) 4,159 9.8 -15.8°
